CAL12 RCYU-RCKH

Flight info

Callsign CAL12
Flight time 0h 50m
Altitude 26000
Route WAGON B591 TACLE Q12 YANMA
Aircraft B738/M-SDE2E3FGHIRWXY/LB1

Departure

Time 2026-05-04 04:42
Airport Hualien Chiashan Airport (RCYU)

Arrival

Time 2026-05-04 05:33
Airport Kaohsiung International Airport (RCKH)
Time Latitude Longitude Altitude Speed Heading
2026-05-04 03:57 24.02604 121.61525 115 ft 0 kts 297°
2026-05-04 04:31 24.02598 121.61536 111 ft 2 kts 297°
2026-05-04 04:31 24.02591 121.61551 111 ft 2 kts 297°
2026-05-04 04:31 24.02587 121.61560 111 ft 2 kts 298°
2026-05-04 04:31 24.02583 121.61575 111 ft 2 kts 266°
2026-05-04 04:32 24.02587 121.61592 111 ft 2 kts 242°
2026-05-04 04:32 24.02595 121.61604 111 ft 2 kts 218°
2026-05-04 04:32 24.02602 121.61609 111 ft 1 kts 203°
2026-05-04 04:32 24.02606 121.61611 111 ft 0 kts 206°
2026-05-04 04:34 24.02603 121.61610 111 ft 2 kts 206°
2026-05-04 04:35 24.02559 121.61586 111 ft 6 kts 207°
2026-05-04 04:35 24.02526 121.61568 111 ft 4 kts 207°
2026-05-04 04:35 24.02495 121.61551 111 ft 4 kts 207°
2026-05-04 04:35 24.02472 121.61538 111 ft 3 kts 207°
2026-05-04 04:36 24.02455 121.61529 111 ft 2 kts 207°
2026-05-04 04:36 24.02420 121.61510 111 ft 13 kts 207°
2026-05-04 04:36 24.02323 121.61456 110 ft 14 kts 207°
2026-05-04 04:36 24.02242 121.61416 110 ft 11 kts 204°
2026-05-04 04:37 24.01987 121.61284 110 ft 12 kts 206°
2026-05-04 04:37 24.01910 121.61243 110 ft 12 kts 206°
2026-05-04 04:38 24.01839 121.61213 110 ft 10 kts 197°
2026-05-04 04:38 24.01775 121.61193 110 ft 11 kts 194°
2026-05-04 04:38 24.01707 121.61174 110 ft 8 kts 194°
2026-05-04 04:38 24.01657 121.61160 110 ft 5 kts 194°
2026-05-04 04:39 24.01622 121.61151 110 ft 4 kts 193°
2026-05-04 04:39 24.01597 121.61145 110 ft 2 kts 193°
2026-05-04 04:39 24.01592 121.61144 109 ft 0 kts 193°
2026-05-04 04:40 24.01584 121.61142 109 ft 6 kts 192°
2026-05-04 04:40 24.01476 121.61117 110 ft 20 kts 193°
2026-05-04 04:40 24.01359 121.61078 109 ft 14 kts 188°
2026-05-04 04:41 24.01341 121.61132 109 ft 10 kts 31°
2026-05-04 04:41 24.01391 121.61163 109 ft 6 kts 30°
2026-05-04 04:41 24.01441 121.61189 110 ft 27 kts 25°
2026-05-04 04:41 24.01899 121.61432 109 ft 113 kts 26°
2026-05-04 04:42 24.02791 121.61915 163 ft 166 kts 26°
2026-05-04 04:42 24.03844 121.62502 665 ft 175 kts 28°
2026-05-04 04:42 24.04803 121.63377 1056 ft 188 kts 50°
2026-05-04 04:42 24.05319 121.64738 1447 ft 208 kts 76°
2026-05-04 04:43 24.05220 121.66405 1736 ft 236 kts 102°
2026-05-04 04:43 24.04312 121.68048 1877 ft 269 kts 136°
2026-05-04 04:43 24.02616 121.68896 2483 ft 274 kts 172°
2026-05-04 04:43 24.00698 121.68754 2820 ft 284 kts 193°
2026-05-04 04:44 23.98709 121.68138 3056 ft 293 kts 199°
2026-05-04 04:44 23.96845 121.67445 3610 ft 282 kts 196°
2026-05-04 04:44 23.94922 121.66938 3824 ft 286 kts 188°
2026-05-04 04:44 23.92871 121.66729 4298 ft 305 kts 175°
2026-05-04 04:45 23.90901 121.67274 5774 ft 288 kts 160°
2026-05-04 04:45 23.89062 121.68004 6879 ft 286 kts 162°
2026-05-04 04:45 23.87177 121.68678 7919 ft 285 kts 164°
2026-05-04 04:47 23.74690 121.72771 11270 ft 370 kts 167°
2026-05-04 04:47 23.72185 121.73559 11760 ft 382 kts 167°
2026-05-04 04:47 23.69597 121.74387 12363 ft 389 kts 167°
2026-05-04 04:47 23.66968 121.75239 13022 ft 394 kts 167°
2026-05-04 04:48 23.64317 121.76102 13678 ft 399 kts 167°
2026-05-04 04:49 23.53500 121.76318 16148 ft 394 kts 201°
2026-05-04 04:49 23.50875 121.75440 16704 ft 398 kts 201°
2026-05-04 04:49 23.48199 121.74575 17285 ft 400 kts 201°
2026-05-04 04:49 23.45500 121.73712 17805 ft 404 kts 201°
2026-05-04 04:50 23.42806 121.72840 18330 ft 407 kts 201°
2026-05-04 04:50 23.40076 121.71957 18841 ft 409 kts 201°
2026-05-04 04:50 23.37330 121.71071 19291 ft 413 kts 201°
2026-05-04 04:50 23.34578 121.70185 19770 ft 415 kts 201°
2026-05-04 04:51 23.31748 121.69276 20200 ft 418 kts 201°
2026-05-04 04:51 23.28949 121.68377 20627 ft 421 kts 201°
2026-05-04 04:51 23.26145 121.67471 21023 ft 425 kts 201°
2026-05-04 04:51 23.23283 121.66551 21393 ft 428 kts 201°
2026-05-04 04:52 23.20417 121.65632 21795 ft 431 kts 201°
2026-05-04 04:52 23.17537 121.64707 22174 ft 433 kts 201°
2026-05-04 04:52 23.14627 121.63773 22559 ft 435 kts 201°
2026-05-04 04:52 23.11694 121.62826 22892 ft 439 kts 201°
2026-05-04 04:53 23.08746 121.61879 23264 ft 441 kts 201°
2026-05-04 04:53 23.05819 121.60939 23582 ft 444 kts 201°
2026-05-04 04:53 23.02846 121.59893 23979 ft 443 kts 204°
2026-05-04 04:53 22.99993 121.58631 24269 ft 444 kts 208°
2026-05-04 04:54 22.97275 121.57090 24611 ft 442 kts 215°
2026-05-04 04:54 22.94712 121.55247 25010 ft 440 kts 218°
2026-05-04 04:54 22.92208 121.53354 25411 ft 440 kts 218°
2026-05-04 04:54 22.89676 121.51460 25852 ft 439 kts 218°
2026-05-04 04:55 22.87173 121.49593 26053 ft 441 kts 218°
2026-05-04 04:55 22.84651 121.47706 26046 ft 436 kts 218°
2026-05-04 04:55 22.82178 121.45850 26044 ft 432 kts 218°
2026-05-04 04:55 22.79703 121.43987 26046 ft 432 kts 218°
2026-05-04 04:56 22.77218 121.42114 26045 ft 433 kts 218°
2026-05-04 04:56 22.74758 121.40255 26042 ft 434 kts 218°
2026-05-04 04:56 22.72274 121.38380 26038 ft 435 kts 218°
2026-05-04 04:56 22.69770 121.36475 26033 ft 434 kts 219°
2026-05-04 04:57 22.67326 121.34564 26039 ft 432 kts 219°
2026-05-04 04:57 22.64893 121.32655 26041 ft 433 kts 219°
2026-05-04 04:57 22.62455 121.30748 26040 ft 433 kts 219°
2026-05-04 04:57 22.60017 121.28843 26039 ft 433 kts 219°
2026-05-04 04:58 22.57558 121.26923 26036 ft 434 kts 219°
2026-05-04 04:58 22.55101 121.25008 26036 ft 433 kts 219°
2026-05-04 04:58 22.52666 121.23108 26036 ft 433 kts 219°
2026-05-04 04:58 22.50222 121.21203 26033 ft 434 kts 219°
2026-05-04 04:59 22.47747 121.19273 26032 ft 433 kts 219°
2026-05-04 04:59 22.45306 121.17369 26030 ft 433 kts 219°
2026-05-04 04:59 22.42850 121.15454 26028 ft 433 kts 219°
2026-05-04 04:59 22.40395 121.13543 26024 ft 435 kts 219°
2026-05-04 05:00 22.37946 121.11639 26016 ft 435 kts 219°
2026-05-04 05:00 22.35487 121.09727 26017 ft 435 kts 219°
2026-05-04 05:00 22.30584 121.05920 26025 ft 434 kts 219°
2026-05-04 05:01 22.28101 121.03991 26024 ft 435 kts 219°
2026-05-04 05:01 22.25664 121.02098 26020 ft 435 kts 219°
2026-05-04 05:01 22.23194 121.00185 26025 ft 435 kts 219°
2026-05-04 05:01 22.20733 120.98279 26026 ft 434 kts 219°
2026-05-04 05:02 22.18285 120.96378 26023 ft 435 kts 219°
2026-05-04 05:02 22.15825 120.94465 25991 ft 435 kts 219°
2026-05-04 05:02 22.13519 120.92336 25286 ft 433 kts 228°
2026-05-04 05:02 22.11582 120.89869 24395 ft 431 kts 236°
2026-05-04 05:03 22.09979 120.87161 23588 ft 430 kts 243°
2026-05-04 05:03 22.08829 120.84186 22526 ft 432 kts 253°
2026-05-04 05:04 22.07703 120.74744 20300 ft 417 kts 264°
2026-05-04 05:04 22.07465 120.71684 19583 ft 413 kts 264°
2026-05-04 05:04 22.07221 120.68616 18870 ft 408 kts 264°
2026-05-04 05:06 22.06874 120.47869 14024 ft 390 kts 291°
2026-05-04 05:06 22.08217 120.45335 13313 ft 390 kts 305°
2026-05-04 05:06 22.10077 120.43206 12595 ft 389 kts 316°
2026-05-04 05:07 22.12124 120.41331 11875 ft 386 kts 317°
2026-05-04 05:07 22.14146 120.39475 11374 ft 376 kts 317°
2026-05-04 05:07 22.16083 120.37672 11055 ft 362 kts 317°
2026-05-04 05:09 22.32032 120.34058 9184 ft 295 kts
2026-05-04 05:09 22.34021 120.34507 8803 ft 293 kts 10°
2026-05-04 05:10 22.36039 120.34964 8417 ft 292 kts 10°
2026-05-04 05:10 22.37974 120.35551 8059 ft 292 kts 24°
2026-05-04 05:10 22.39585 120.36866 7668 ft 292 kts 51°
2026-05-04 05:10 22.40565 120.38766 7280 ft 282 kts 65°
2026-05-04 05:11 22.41376 120.40665 6943 ft 280 kts 63°
2026-05-04 05:11 22.42244 120.42564 6568 ft 280 kts 62°
2026-05-04 05:11 22.43097 120.44455 6179 ft 279 kts 65°
2026-05-04 05:11 22.43819 120.46388 5820 ft 277 kts 69°
2026-05-04 05:12 22.44498 120.48344 5454 ft 277 kts 69°
2026-05-04 05:12 22.45180 120.50249 5224 ft 270 kts 68°
2026-05-04 05:12 22.45852 120.52113 5158 ft 258 kts 69°
2026-05-04 05:12 22.46553 120.53822 5063 ft 240 kts 58°
2026-05-04 05:13 22.47659 120.55110 4931 ft 230 kts 32°
2026-05-04 05:13 22.49133 120.55635 4668 ft 219 kts
2026-05-04 05:13 22.50606 120.55653 4452 ft 205 kts
2026-05-04 05:13 22.51990 120.55689 4238 ft 194 kts
2026-05-04 05:14 22.53315 120.55738 4045 ft 186 kts
2026-05-04 05:14 22.54572 120.55789 3863 ft 176 kts
2026-05-04 05:14 22.55778 120.55688 3645 ft 171 kts 344°
2026-05-04 05:14 22.56678 120.54925 3506 ft 164 kts 299°
2026-05-04 05:15 22.56972 120.53741 3327 ft 166 kts 276°
2026-05-04 05:15 22.57072 120.52498 3067 ft 166 kts 274°
2026-05-04 05:15 22.57147 120.51260 2834 ft 163 kts 273°
2026-05-04 05:15 22.57204 120.50041 2601 ft 160 kts 273°
2026-05-04 05:16 22.57252 120.48846 2390 ft 159 kts 273°
2026-05-04 05:16 22.57292 120.47652 2182 ft 158 kts 274°
2026-05-04 05:16 22.57331 120.46463 1973 ft 159 kts 275°
2026-05-04 05:16 22.57368 120.45277 1750 ft 157 kts 276°
2026-05-04 05:17 22.57408 120.44102 1536 ft 155 kts 276°
2026-05-04 05:17 22.57460 120.42945 1339 ft 151 kts 275°
2026-05-04 05:17 22.57502 120.41830 1121 ft 149 kts 274°
2026-05-04 05:17 22.57537 120.40694 976 ft 150 kts 272°
2026-05-04 05:18 22.57563 120.39598 725 ft 144 kts 272°
2026-05-04 05:18 22.57605 120.38560 502 ft 133 kts 272°
2026-05-04 05:18 22.57629 120.37573 281 ft 129 kts 272°
2026-05-04 05:18 22.57660 120.36607 162 ft 128 kts 270°
2026-05-04 05:19 22.57695 120.35652 75 ft 138 kts 269°
2026-05-04 05:19 22.57688 120.34608 654 ft 147 kts 268°
2026-05-04 05:19 22.57688 120.33354 1036 ft 188 kts 274°
2026-05-04 05:19 22.57539 120.31882 1143 ft 201 kts 256°
2026-05-04 05:20 22.56834 120.30483 1114 ft 220 kts 227°
2026-05-04 05:20 22.55753 120.29357 1092 ft 214 kts 228°
2026-05-04 05:20 22.54799 120.28099 1092 ft 215 kts 234°
2026-05-04 05:20 22.53928 120.26843 1079 ft 200 kts 234°
2026-05-04 05:21 22.53112 120.25684 1085 ft 185 kts 234°
2026-05-04 05:21 22.52335 120.24576 1104 ft 187 kts 229°
2026-05-04 05:21 22.51203 120.23903 1092 ft 190 kts 185°
2026-05-04 05:21 22.49909 120.24181 1110 ft 192 kts 151°
2026-05-04 05:22 22.48889 120.25113 1128 ft 193 kts 123°
2026-05-04 05:22 22.48371 120.26499 1742 ft 205 kts 102°
2026-05-04 05:22 22.47997 120.27891 2931 ft 192 kts 105°
2026-05-04 05:22 22.47647 120.29261 3826 ft 196 kts 106°
2026-05-04 05:23 22.47216 120.30757 4117 ft 215 kts 108°
2026-05-04 05:23 22.46760 120.32272 4024 ft 207 kts 108°
2026-05-04 05:23 22.46337 120.33708 4000 ft 201 kts 107°
2026-05-04 05:23 22.45902 120.35171 4005 ft 204 kts 108°
2026-05-04 05:24 22.45439 120.36715 3778 ft 219 kts 108°
2026-05-04 05:24 22.44976 120.38263 3895 ft 219 kts 107°
2026-05-04 05:24 22.44509 120.39845 3912 ft 222 kts 107°
2026-05-04 05:24 22.44047 120.41429 3894 ft 219 kts 107°
2026-05-04 05:25 22.43584 120.43005 3904 ft 218 kts 107°
2026-05-04 05:25 22.43295 120.44631 3889 ft 221 kts 87°
2026-05-04 05:25 22.43713 120.46208 3643 ft 219 kts 67°
2026-05-04 05:25 22.44297 120.47704 3509 ft 214 kts 70°
2026-05-04 05:26 22.44825 120.49223 3518 ft 219 kts 70°
2026-05-04 05:26 22.45360 120.50776 3526 ft 218 kts 70°
2026-05-04 05:26 22.45898 120.52318 3535 ft 218 kts 70°
2026-05-04 05:26 22.46425 120.53815 3528 ft 211 kts 69°
2026-05-04 05:27 22.47230 120.55115 3533 ft 209 kts 40°
2026-05-04 05:28 22.57075 120.53941 3045 ft 217 kts 283°
2026-05-04 05:29 22.57121 120.52378 3030 ft 196 kts 268°
2026-05-04 05:29 22.57085 120.50944 2892 ft 186 kts 268°
2026-05-04 05:29 22.57098 120.49560 2696 ft 180 kts 271°
2026-05-04 05:29 22.57125 120.48233 2498 ft 174 kts 273°
2026-05-04 05:31 22.57564 120.39286 692 ft 161 kts 273°
2026-05-04 05:31 22.57623 120.38118 416 ft 146 kts 271°
2026-05-04 05:32 22.57645 120.37054 237 ft 134 kts 272°
2026-05-04 05:32 22.57678 120.36066 93 ft 130 kts 270°
2026-05-04 05:32 22.57704 120.35139 40 ft 108 kts 268°
2026-05-04 05:33 22.57725 120.34486 39 ft 0 kts 272°
2026-05-04 05:33 22.57727 120.34439 39 ft 17 kts 271°
2026-05-04 05:33 22.57729 120.34305 39 ft 16 kts 271°
2026-05-04 05:33 22.57731 120.34195 39 ft 12 kts 269°
2026-05-04 05:34 22.57689 120.34137 39 ft 9 kts 183°
2026-05-04 05:34 22.57635 120.34133 39 ft 5 kts 184°
2026-05-04 05:34 22.57599 120.34132 39 ft 6 kts 181°
2026-05-04 05:34 22.57531 120.34132 39 ft 12 kts 177°
2026-05-04 05:35 22.57440 120.34135 39 ft 11 kts 194°
2026-05-04 05:35 22.57406 120.34093 39 ft 6 kts 263°
2026-05-04 05:35 22.57390 120.34067 39 ft 3 kts 201°
2026-05-04 05:35 22.57362 120.34057 39 ft 4 kts 193°
2026-05-04 05:36 22.57342 120.34055 39 ft 2 kts 180°
2026-05-04 05:36 22.57308 120.34055 39 ft 4 kts 179°
2026-05-04 05:36 22.57288 120.34057 39 ft 1 kts 154°
2026-05-04 05:36 22.57276 120.34071 39 ft 4 kts 127°
2026-05-04 05:37 22.57272 120.34092 39 ft 2 kts 88°
2026-05-04 05:37 22.57272 120.34104 39 ft 1 kts 90°
2026-05-04 05:37 22.57271 120.34114 39 ft 2 kts 92°
2026-05-04 05:38 22.57271 120.34132 39 ft 1 kts 92°
2026-05-04 05:38 22.57271 120.34133 39 ft 0 kts 92°